• In Uzbekistan
  • List of Countries
  • For 7 days
  • Water Temperature
  • Satellite Maps
  • Weather Map
  • Weather Widgets
  • user-avatar
    Login

    Hourly Weather Tbilisi

    Today, 23 September, Saturday

    Time Temperature Precipitation Wind Pressure Humidity
    00:00 +20°C° 0 mm 1 mps 702 mmHg 63%
    01:00 +20°C° 0 mm 1 mps 702 mmHg 63%
    02:00 +20°C° 0 mm 1 mps 702 mmHg 64%
    03:00 +19°C° 0 mm 1 mps 702 mmHg 64%
    04:00 +19°C° 0 mm 1 mps 702 mmHg 64%
    05:00 +19°C° 0 mm 1 mps 702 mmHg 64%
    06:00 +19°C° 0 mm 1 mps 702 mmHg 64%
    07:00 +21°C° 0 mm 1 mps 702 mmHg 56%
    08:00 +23°C° 0 mm 1 mps 703 mmHg 49%
    09:00 +26°C° 0 mm 1 mps 703 mmHg 42%
    10:00 +27°C° 0 mm 2 mps 703 mmHg 39%
    11:00 +28°C° 0 mm 3 mps 703 mmHg 35%
    12:00 +29°C° 0 mm 3 mps 703 mmHg 32%
    13:00 +30°C° 0 mm 4 mps 703 mmHg 31%
    14:00 +30°C° 0 mm 4 mps 703 mmHg 31%
    15:00 +30°C° 0 mm 4 mps 703 mmHg 30%
    16:00 +28°C° 0.1 mm 3 mps 703 mmHg 36%
    17:00 +26°C° 0.1 mm 3 mps 703 mmHg 42%
    18:00 +24°C° 0.1 mm 2 mps 703 mmHg 47%
    19:00 +23°C° 0.3 mm 2 mps 703 mmHg 49%
    20:00 +21°C° 0.3 mm 2 mps 703 mmHg 51%
    21:00 +20°C° 0.3 mm 2 mps 704 mmHg 53%
    22:00 +19°C° 0.2 mm 2 mps 704 mmHg 55%
    23:00 +19°C° 0.2 mm 2 mps 704 mmHg 57%

    Tomorrow, 24 September, Sunday

    Time Temperature Precipitation Wind Pressure Humidity
    00:00 +18°C° 0.2 mm 2 mps 704 mmHg 59%
    01:00 +19°C° 0.2 mm 1 mps 704 mmHg 61%
    02:00 +19°C° 0.2 mm 1 mps 704 mmHg 63%
    03:00 +18°C° 0.2 mm 1 mps 704 mmHg 65%
    04:00 +18°C° 0.3 mm 1 mps 704 mmHg 66%
    05:00 +18°C° 0.3 mm 1 mps 704 mmHg 67%
    06:00 +16°C° 0.3 mm 1 mps 704 mmHg 68%
    07:00 +20°C° 0.1 mm 1 mps 705 mmHg 60%
    08:00 +22°C° 0.1 mm 1 mps 705 mmHg 53%
    09:00 +24°C° 0.1 mm 1 mps 705 mmHg 45%
    10:00 +25°C° 0 mm 1 mps 705 mmHg 41%
    11:00 +27°C° 0 mm 2 mps 705 mmHg 37%
    12:00 +28°C° 0 mm 2 mps 705 mmHg 34%
    13:00 +28°C° 0 mm 2 mps 705 mmHg 32%
    14:00 +29°C° 0 mm 2 mps 705 mmHg 31%
    15:00 +29°C° 0 mm 2 mps 705 mmHg 30%
    16:00 +27°C° 0 mm 2 mps 705 mmHg 34%
    17:00 +25°C° 0 mm 2 mps 704 mmHg 38%
    18:00 +23°C° 0 mm 1 mps 704 mmHg 43%
    19:00 +22°C° 0 mm 1 mps 705 mmHg 45%
    20:00 +21°C° 0 mm 1 mps 705 mmHg 47%
    21:00 +20°C° 0 mm 1 mps 705 mmHg 50%
    22:00 +20°C° 0 mm 1 mps 705 mmHg 51%
    23:00 +19°C° 0 mm 1 mps 705 mmHg 52%

    Day after tomorrow, 25 September, Monday

    Time Temperature Precipitation Wind Pressure Humidity
    00:00 +19°C° 0 mm 1 mps 705 mmHg 53%
    01:00 +18°C° 0 mm 1 mps 705 mmHg 53%
    02:00 +18°C° 0 mm 1 mps 705 mmHg 54%
    03:00 +18°C° 0 mm 1 mps 705 mmHg 54%
    04:00 +16°C° 0 mm 1 mps 705 mmHg 55%
    05:00 +16°C° 0 mm 1 mps 705 mmHg 56%
    06:00 +16°C° 0 mm 1 mps 705 mmHg 57%
    07:00 +19°C° 0 mm 1 mps 705 mmHg 51%
    08:00 +21°C° 0 mm 1 mps 705 mmHg 46%
    09:00 +23°C° 0 mm 1 mps 706 mmHg 40%
    10:00 +25°C° 0 mm 2 mps 706 mmHg 38%
    11:00 +26°C° 0 mm 2 mps 705 mmHg 35%
    12:00 +27°C° 0 mm 2 mps 705 mmHg 33%
    13:00 +27°C° 0 mm 2 mps 705 mmHg 31%
    14:00 +28°C° 0 mm 3 mps 705 mmHg 30%
    15:00 +28°C° 0 mm 3 mps 705 mmHg 29%
    16:00 +26°C° 0 mm 2 mps 705 mmHg 33%
    17:00 +24°C° 0 mm 2 mps 705 mmHg 37%
    18:00 +22°C° 0 mm 1 mps 705 mmHg 41%
    19:00 +22°C° 0 mm 1 mps 705 mmHg 44%
    20:00 +21°C° 0 mm 1 mps 705 mmHg 47%
    21:00 +20°C° 0 mm 1 mps 705 mmHg 50%
    22:00 +19°C° 0 mm 1 mps 705 mmHg 51%
    23:00 +18°C° 0 mm 1 mps 705 mmHg 53%

    26 September, Tuesday

    Time Temperature Precipitation Wind Pressure Humidity
    00:00 +18°C° 0 mm 1 mps 705 mmHg 54%
    01:00 +16°C° 0 mm 1 mps 705 mmHg 55%
    02:00 +16°C° 0 mm 1 mps 705 mmHg 57%
    03:00 +15°C° 0 mm 1 mps 704 mmHg 58%
    04:00 +15°C° 0 mm 1 mps 704 mmHg 59%
    05:00 +15°C° 0 mm 1 mps 704 mmHg 60%
    06:00 +14°C° 0 mm 1 mps 704 mmHg 61%
    07:00 +18°C° 0 mm 1 mps 704 mmHg 56%
    08:00 +19°C° 0 mm 2 mps 705 mmHg 51%
    09:00 +21°C° 0 mm 2 mps 705 mmHg 46%
    10:00 +23°C° 0 mm 2 mps 705 mmHg 44%
    11:00 +24°C° 0 mm 3 mps 704 mmHg 42%
    12:00 +25°C° 0 mm 3 mps 704 mmHg 40%
    13:00 +25°C° 0 mm 3 mps 704 mmHg 40%
    14:00 +26°C° 0 mm 4 mps 704 mmHg 41%
    15:00 +26°C° 0 mm 4 mps 703 mmHg 41%
    16:00 +24°C° 0 mm 3 mps 703 mmHg 47%
    17:00 +23°C° 0 mm 2 mps 703 mmHg 53%
    18:00 +20°C° 0 mm 2 mps 703 mmHg 58%
    19:00 +20°C° 0 mm 2 mps 704 mmHg 59%
    20:00 +19°C° 0 mm 2 mps 704 mmHg 61%
    21:00 +18°C° 0 mm 2 mps 704 mmHg 62%
    22:00 +18°C° 0.1 mm 2 mps 704 mmHg 64%
    23:00 +17°C° 0.1 mm 3 mps 704 mmHg 67%

    27 September, Wednesday

    Time Temperature Precipitation Wind Pressure Humidity
    00:00 +17°C° 0.1 mm 3 mps 704 mmHg 70%
    01:00 +16°C° 0.4 mm 3 mps 704 mmHg 73%
    02:00 +15°C° 0.4 mm 2 mps 704 mmHg 76%
    03:00 +15°C° 0.4 mm 2 mps 704 mmHg 80%
    04:00 +15°C° 0.1 mm 2 mps 704 mmHg 81%
    05:00 +15°C° 0.1 mm 2 mps 704 mmHg 81%
    06:00 +14°C° 0.1 mm 2 mps 704 mmHg 82%
    07:00 +15°C° 0 mm 2 mps 703 mmHg 80%
    08:00 +15°C° 0 mm 2 mps 703 mmHg 78%
    09:00 +16°C° 0 mm 2 mps 703 mmHg 76%
    10:00 +17°C° 0 mm 2 mps 703 mmHg 73%
    11:00 +17°C° 0 mm 2 mps 703 mmHg 70%
    12:00 +18°C° 0 mm 2 mps 703 mmHg 67%
    13:00 +18°C° 0.1 mm 2 mps 703 mmHg 66%
    14:00 +19°C° 0.1 mm 2 mps 703 mmHg 65%
    15:00 +19°C° 0.1 mm 2 mps 702 mmHg 64%
    16:00 +18°C° 0.3 mm 2 mps 703 mmHg 70%
    17:00 +18°C° 0.3 mm 1 mps 703 mmHg 75%
    18:00 +16°C° 0.3 mm 1 mps 703 mmHg 81%
    19:00 +16°C° 0.2 mm 1 mps 703 mmHg 83%
    20:00 +15°C° 0.2 mm 1 mps 703 mmHg 85%
    21:00 +15°C° 0.2 mm 1 mps 704 mmHg 86%
    22:00 +15°C° 0.2 mm 1 mps 703 mmHg 87%
    23:00 +15°C° 0.2 mm 1 mps 703 mmHg 88%

    28 September, Thursday

    Time Temperature Precipitation Wind Pressure Humidity
    00:00 +15°C° 0.2 mm 1 mps 703 mmHg 89%
    01:00 +15°C° 0.2 mm 1 mps 703 mmHg 90%
    02:00 +15°C° 0.2 mm 1 mps 703 mmHg 90%
    03:00 +13°C° 0.2 mm 0 mps 703 mmHg 91%
    04:00 +13°C° 0.2 mm 0 mps 703 mmHg 91%
    05:00 +13°C° 0.2 mm 0 mps 703 mmHg 91%
    06:00 +13°C° 0.2 mm 0 mps 703 mmHg 92%
    07:00 +15°C° 0.1 mm 1 mps 703 mmHg 87%
    08:00 +15°C° 0.1 mm 1 mps 704 mmHg 82%
    09:00 +16°C° 0.1 mm 1 mps 704 mmHg 78%
    10:00 +16°C° 0.3 mm 1 mps 704 mmHg 76%
    11:00 +18°C° 0.3 mm 1 mps 704 mmHg 75%
    12:00 +17°C° 0.3 mm 2 mps 704 mmHg 74%
    13:00 +17°C° 0.3 mm 2 mps 704 mmHg 74%
    14:00 +17°C° 0.3 mm 2 mps 704 mmHg 74%
    15:00 +17°C° 0.3 mm 2 mps 704 mmHg 75%
    16:00 +16°C° 0.5 mm 1 mps 704 mmHg 78%
    17:00 +16°C° 0.5 mm 1 mps 704 mmHg 81%
    18:00 +15°C° 0.5 mm 1 mps 705 mmHg 84%
    19:00 +15°C° 0.7 mm 2 mps 705 mmHg 85%
    20:00 +15°C° 0.7 mm 2 mps 705 mmHg 87%
    21:00 +14°C° 0.7 mm 2 mps 705 mmHg 88%
    22:00 +14°C° 0.3 mm 2 mps 705 mmHg 89%
    23:00 +14°C° 0.3 mm 2 mps 705 mmHg 90%
    Show more